Hourly Data Report for October 19, 2013

All times are specified in Local Standard Time (LST). Add 1 hour to adjust for Daylight Saving Time where and when it is observed.

RANKIN INLET A
NUNAVUT

62°48'38.000" N
92°06'53.000" W
32.30 m
2303405
71083
YRT

Download Data

Hourly Data (October 2013)
Hourly Data Report for October 19, 2013
Temp Definition
°C
Dew Point Temp Definition
°C
Rel Hum Definition
%
Wind Dir Definition
10's deg

Wind Spd Definition
km/h
Visibility Definition
km
Stn Press Definition
kPa
Hmdx Definition


Wind Chill Definition


Weather Definition


TIME
00:00 Legend Double Dagger -4.1 -5.1 93 24 19 8.1 100.20   -10 Snow
01:00 Legend Double Dagger -3.8 -4.8 93 23 17 16.1 100.25   -10 Snow
02:00 Legend Double Dagger -3.5 -4.5 93 22 14 12.9 100.28   -9 Snow
03:00 Legend Double Dagger -3.5 -4.5 93 24 13 16.1 100.29   -8 Snow
04:00 Legend Double Dagger -3.4 -4.4 93 25 13 16.1 100.34   -8 Snow
05:00 Legend Double Dagger -3.5 -4.5 93 24 12 19.3 100.37   -8 Snow
06:00 Legend Double Dagger -3.6 -5.0 90 23 15 19.3 100.42   -9 Snow
07:00 Legend Double Dagger -3.6 -5.0 90 23 10 24.1 100.48   -8 Snow
08:00 Legend Double Dagger -4.8 -5.8 93 32 2 24.1 100.52   -6 Snow
09:00 Legend Double Dagger -3.7 -5.3 89 22 11 24.1 100.56   -8 Snow
10:00 Legend Double Dagger -3.2 -4.8 89 19 14 24.1 100.63   -8 Snow
11:00 Legend Double Dagger -3.1 -5.0 87 19 13 24.1 100.67   -8 Snow
12:00 Legend Double Dagger -2.7 -4.7 86 19 10 24.1 100.72   -7 Snow
13:00 Legend Double Dagger -2.8 -4.7 87 20 7 24.1 100.76   -6 Snow
14:00 Legend Double Dagger -2.5 -4.5 86 15 4 24.1 100.79   -4 Snow
15:00 Legend Double Dagger -5.0 -6.0 93 36 7 24.1 100.82   -8 Snow
16:00 Legend Double Dagger -2.8 -4.1 91 6 9 6.4 100.87   -6 Snow
17:00 Legend Double Dagger -2.8 -3.8 93 8 11 0.8 100.92   -7 Snow
18:00 Legend Double Dagger -3.0 -4.0 93 3 17 1.2 100.93   -9 Snow
19:00 Legend Double Dagger -3.1 -3.9 94 2 22 4.8 100.90   -9 Snow
20:00 Legend Double Dagger -1.0 -1.7 95 7 21 4.8 100.88   -7 Snow
21:00 Legend Double Dagger 0.4 -0.5 94 8 27 16.1 100.90     Snow
22:00 Legend Double Dagger 0.6 -0.7 91 9 23 24.1 100.92     Snow
23:00 Legend Double Dagger 0.8 -0.4 92 9 19 24.1 100.95     Snow

Notes on Data Quality.

Legend

  • E = Estimated
  • M = Missing
  • NA = Not Available
  • ‡ = Partner data that is not subject to review by the National Climate Archives
Date modified: